Starlink 11387

operational
NORAD ID: 62090 Int'l Des: 2024-220 Owner: SPXS Country: US Constellation: starlink
LEOCIRCULAR

Über Starlink 11387

Beschreibung wird geladen...

Live-Position

3D-Globus wird geladen...

Nächste Überflüge

Höhenverlauf

Altitude vs Time

uPlot chart will show altitude changes over time

Zweizeiliger Elementsatz

1 62090U 24220C 26036.85374913 .00399543 00000-0 29450-2 0 9999
2 62090 42.9996 235.1978 0003299 245.6234 114.4290 15.71040904 70045
Epoch: 5. Feb. 2026 • Age: 9 hours

Aktueller Status

Höhe 360.8 km
Geschwindigkeit 7.69 km/s
Subsatellitenpunkt -29.26°S, 122.73°W
Startdatum 25. Nov. 2024
Alter 1.1 years
Typ internet

Technische Details

Klassifizierung Payload
Masse 960.00 kg
Trockenmasse 910.00 kg
Gesamtmasse 960.00 kg
Länge 0.30 m
Durchmesser 4.10 m
Spannweite 29.00 m
Form Box + pan
Hersteller SPXS
Bus-Typ Starlink V2MD
Phasenstatus In Orbit
Besitzer/Staat SPXS/US

Große Konstellationen

Loading constellations...